[[{"header":{"parameterUnit":"m.s-1","parameterCategory":1,"la1":30.2991,"la2":30.254,"lo1":-89.0895,"lo2":-89.0444,"dy":0.0017,"dx":0.0017,"nx":28,"ny":28,"refTime":"2023-07-18T03:00:00:Z","depth":0,"parameterNumber":2,"parameterNumberName":"U-component_of_WINDS"},"data":[0,0,0,0,0,0,0,0,0,0,0,0,0,0,0,0,0,0,0,0,0,0,0,0,0,0,0,0,0,0,0,0,0,0,0,0,0,0,0,0,0,0,0,0,0,0,0,0,0,0,0,0,0,0,0,0,0,0,2.9078,2.9078,0,2.909,2.909,2.909,2.8987,2.8984,2.8981,2.8978,2.8994,2.8997,2.9,0,0,0,0,0,0,0,0,0,0,0,0,0,2.8966,2.8969,2.9078,2.9078,2.9078,2.909,2.909,2.909,2.8987,2.8984,2.898,2.8977,2.8993,2.8996,2.9,0,0,0,0,0,0,0,0,0,0,0,0,0,2.9,2.8969,2.9078,2.9028,2.9024,2.909,2.909,2.909,2.8988,2.8984,2.8979,2.8975,2.8991,2.8996,2.9,2.9116,0,0,2.9015,2.9017,0,0,0,0,0,0,0,0,2.8998,2.9004,2.9035,2.9031,2.9027,2.9032,2.9056,2.9099,2.8989,2.9002,2.8978,2.8973,2.901,2.9013,2.9025,2.9116,2.9117,2.9015,2.9018,2.902,2.9021,0,0,0,0,0,0,0,2.8996,2.9003,2.9082,2.9036,2.9031,2.9005,2.9005,2.9064,2.903,2.9,2.8993,2.8996,2.9007,2.9021,2.9024,2.9117,2.9015,2.9019,2.9022,2.9024,2.9302,2.9306,0,0,0,0,0,0,2.9,2.9002,2.9082,2.9083,2.9001,2.9011,2.9011,2.9035,2.9029,2.9024,2.8999,2.8991,2.9015,2.9019,2.9025,2.9158,2.902,2.9024,2.9027,2.9297,2.9303,2.9308,0,0,0,0,0,0,2.8998,2.9008,2.9082,2.904,2.9048,2.9017,2.9045,2.9038,2.9051,2.9028,2.9022,2.9019,2.9012,2.9018,2.9093,2.9157,2.9026,2.903,2.9292,2.9299,2.9306,2.9426,0,0,0,0,0,0,2.8995,2.9008,2.9052,2.9042,2.905,2.915,2.9049,2.9041,2.9059,2.9048,2.9045,2.9041,2.9009,2.9087,2.9098,2.9161,2.9034,2.9286,2.9295,2.9303,2.9416,2.9436,2.9453,0,0,0,0,0,2.8992,2.9086,2.9054,2.9065,2.9104,2.9154,2.9159,2.9119,2.9065,2.9108,2.9093,2.9041,2.9148,2.9095,2.9107,2.9172,2.9282,2.9293,2.9303,2.9408,2.9432,2.9453,0,0,0,0,0,0,2.9105,2.9084,2.9049,2.9142,2.9151,2.9136,2.919,2.9146,2.9171,2.916,2.911,2.9111,2.9194,2.919,2.9132,2.9283,2.9206,2.9219,2.9282,2.9305,2.9323,2.9322,2.9038,0,0,0,0,0,2.9141,2.9183,2.9162,2.9247,2.9253,2.9221,2.9241,2.921,2.9217,2.922,2.9211,2.922,2.9255,2.928,2.9311,2.9415,2.9413,2.9466,2.9485,2.95,2.9512,2.9565,2.9588,2.9342,2.9342,2.9342,0,0,2.9215,2.9209,2.9239,2.9269,2.9272,2.9317,2.9225,2.9276,2.9309,2.9228,2.9298,2.9291,2.9298,2.9388,2.9427,2.9388,2.9579,2.9513,2.9526,2.9529,2.9578,2.9601,2.9622,2.9349,2.9348,2.9347,0,0,2.9373,2.9373,2.9443,2.9447,2.9452,2.943,2.9447,2.9439,2.9431,2.95,2.944,2.9478,2.9541,2.9548,2.956,2.9719,2.9672,2.9731,2.9828,2.988,2.9899,2.9916,2.9972,2.9993,2.9743,2.9743,2.9743,0,2.9466,2.953,2.9485,2.954,2.9554,2.9482,2.9552,2.9559,2.9574,2.9586,2.9542,2.9618,2.9618,2.9707,2.9746,2.9758,2.9776,2.9731,2.99,2.9917,2.9932,2.9984,3.0006,2.975,2.9749,2.9749,2.9748,0,2.9642,2.9688,2.9744,2.9759,2.978,2.9843,2.9807,2.9834,2.9801,2.9783,2.9854,2.9851,2.988,2.9899,2.9867,2.9984,2.9959,2.9909,2.983,2.9963,3.0012,3.0032,2.976,2.9758,2.9756,2.9754,0,0,2.9873,2.9861,2.9882,2.9887,2.9886,2.9921,2.998,3.0007,3.0031,3.0044,3.0091,3.0145,3.0098,3.0111,3.008,3.0126,3.0251,3.007,3.0069,3.0103,3.0378,3.0415,3.0439,3.022,3.0224,3.0227,3.0377,0,3.0026,3.0125,3.0085,3.0188,3.0229,3.016,3.0211,3.0216,3.0202,3.0234,3.0218,3.0257,3.0192,3.0199,3.0242,3.0227,3.0306,3.0216,3.0264,3.0266,3.0263,3.0465,3.0505,3.0647,3.0396,3.0399,3.0401,0,3.0218,3.0237,3.0343,3.0334,3.0349,3.0396,3.0417,3.0449,3.0454,3.0439,3.0454,3.0412,3.0469,3.0391,3.0468,3.0408,3.0425,3.0421,3.0425,3.0428,3.0341,3.0472,3.0691,3.0712,3.0431,3.0428,3.0426,0,3.0374,3.0426,3.0496,3.0503,3.0494,3.0528,3.0526,3.0526,3.0544,3.0563,3.0574,3.06,3.0614,3.0635,3.0601,3.0547,3.0683,3.0602,3.0672,3.0673,3.0704,3.0702,3.0928,3.0717,3.0716,3.0716,3.0715,0,3.0549,3.0616,3.0566,3.0609,3.0682,3.0636,3.071,3.07,3.0701,3.074,3.0683,3.0722,3.0675,3.0709,3.0683,3.0751,3.0758,3.0748,3.074,3.0752,3.0754,3.0763,3.0752,3.0722,3.072,3.0719,3.0718,0,3.0735,3.0704,3.0775,3.076,3.0758,3.0813,3.08,3.0839,3.082,3.0871,3.0881,3.0851,3.0888,3.0856,3.0893,3.0875,3.0964,3.0943,3.0962,3.0956,3.1027,3.1021,3.1267,3.1296,3.1067,3.1069,3.1071,0,3.0848,3.0898,3.0888,3.091,3.0911,3.0948,3.0966,3.0922,3.0943,3.0951,3.0989,3.1021,3.1044,3.1107,3.1089,3.1116,3.1095,3.1179,3.1098,3.1109,3.1094,3.1092,3.1096,3.1195,3.1198,3.12,3.1202,0,3.1052,3.1034,3.1061,3.1083,3.1106,3.1122,3.1133,3.1154,3.1109,3.1136,3.1173,3.1191,3.1227,3.1259,3.128,3.1278,3.1233,3.1227,3.1245,3.1258,3.1266,3.1261,3.1006,3.1222,3.122,3.1218,3.1217,3.1216,3.1204,3.1245,3.1243,3.1276,3.1279,3.1291,3.1326,3.1311,3.134,3.1365,3.1338,3.1382,3.1384,3.1408,3.1411,3.1445,3.141,3.1436,3.1442,3.1449,3.1459,3.1262,3.1449,3.1449,3.1448,3.1448,3.1447,0,3.1404,3.1399,3.1429,3.1446,3.1471,3.1425,3.1434,3.1459,3.1498,3.1503,3.1527,3.1569,3.1599,3.1583,3.161,3.164,3.162,3.1649,3.1646,3.1646,3.1489,3.1471,3.1665,3.1665,3.1665,3.1665,3.1665,3.1664,3.151,3.1576,3.1558,3.1624,3.1619,3.1661,3.167,3.1681,3.1684,3.1733,3.1758,3.1746,3.1743,3.1769,3.1795,3.1789,3.1801,3.1837,3.1825,3.1678,3.1657,3.1637,3.1619,3.1841,3.1841,3.1978,3.1979,3.198]},{"header":{"parameterUnit":"m.s-1","parameterCategory":1,"la1":30.2991,"la2":30.254,"lo1":-89.0895,"lo2":-89.0444,"dy":0.0017,"dx":0.0017,"nx":28,"ny":28,"refTime":"2023-07-18T03:00:00:Z","depth":0,"parameterNumber":3,"parameterNumberName":"V-component_of_WINDS"},"data":[0,0,0,0,0,0,0,0,0,0,0,0,0,0,0,0,0,0,0,0,0,0,0,0,0,0,0,0,0,0,0,0,0,0,0,0,0,0,0,0,0,0,0,0,0,0,0,0,0,0,0,0,0,0,0,0,0,0,0.848,0.8481,0,0.8578,0.8579,0.858,0.8605,0.8605,0.8604,0.8604,0.8702,0.8705,0.8708,0,0,0,0,0,0,0,0,0,0,0,0,0,0.8311,0.8314,0.848,0.8481,0.8482,0.8578,0.8579,0.8581,0.8606,0.8605,0.8604,0.8603,0.8701,0.8704,0.8708,0,0,0,0,0,0,0,0,0,0,0,0,0,0.8394,0.8315,0.848,0.8506,0.851,0.8578,0.8579,0.8581,0.8606,0.8605,0.8604,0.8603,0.8699,0.8704,0.8709,0.8756,0,0,0.8723,0.8725,0,0,0,0,0,0,0,0,0.8389,0.84,0.8501,0.8505,0.8509,0.8579,0.8556,0.864,0.8606,0.8569,0.8604,0.8603,0.8661,0.8669,0.8689,0.8761,0.8765,0.8724,0.8726,0.8728,0.873,0,0,0,0,0,0,0,0.8384,0.8396,0.8519,0.8503,0.8507,0.8512,0.8523,0.8572,0.8619,0.8572,0.8574,0.8586,0.8663,0.8685,0.8692,0.8766,0.8723,0.8728,0.8731,0.8732,0.888,0.8881,0,0,0,0,0,0,0.8374,0.8391,0.8516,0.8522,0.8446,0.8516,0.8528,0.8557,0.8619,0.8627,0.8587,0.8587,0.8677,0.8686,0.8695,0.8755,0.8728,0.8733,0.8736,0.8879,0.888,0.8881,0,0,0,0,0,0,0.837,0.8385,0.8512,0.8457,0.8474,0.852,0.8552,0.8559,0.8581,0.8629,0.8638,0.86,0.8677,0.8689,0.8741,0.8758,0.8735,0.8739,0.8878,0.8879,0.8881,0.8873,0,0,0,0,0,0,0.8365,0.8383,0.8403,0.8457,0.8477,0.8556,0.8553,0.8562,0.859,0.8591,0.8644,0.8652,0.8677,0.8733,0.8745,0.8764,0.8743,0.8876,0.8878,0.888,0.8872,0.8874,0.8876,0,0,0,0,0,0.8359,0.8396,0.8403,0.8418,0.8502,0.8557,0.8568,0.8597,0.8591,0.861,0.8641,0.8651,0.8754,0.8739,0.8752,0.8773,0.8875,0.8878,0.888,0.8871,0.8874,0.8876,0,0,0,0,0,0,0.8342,0.8404,0.8413,0.8469,0.8508,0.8562,0.8587,0.8599,0.8639,0.8638,0.8671,0.8683,0.8732,0.8758,0.8739,0.8821,0.8815,0.882,0.8803,0.8806,0.8808,0.8801,0.8747,0,0,0,0,0,0.8344,0.8385,0.8437,0.8481,0.8501,0.854,0.8565,0.8584,0.8625,0.8641,0.8676,0.8715,0.8756,0.8782,0.8823,0.8876,0.8887,0.8896,0.8898,0.89,0.8904,0.8933,0.8937,0.8889,0.8889,0.8889,0,0,0.835,0.8389,0.8413,0.8479,0.8511,0.8552,0.8554,0.8597,0.8627,0.8648,0.8699,0.8725,0.8771,0.8823,0.8848,0.8846,0.892,0.8903,0.8904,0.8907,0.8936,0.894,0.8944,0.8891,0.8891,0.889,0,0,0.8382,0.8416,0.8457,0.8489,0.8538,0.8564,0.8573,0.8625,0.8644,0.8696,0.8712,0.8748,0.8818,0.885,0.8875,0.8917,0.8927,0.8929,0.894,0.8967,0.8971,0.8975,0.8989,0.8994,0.8933,0.8933,0.8933,0,0.8383,0.8446,0.8476,0.8518,0.8546,0.8567,0.8608,0.8637,0.8696,0.8714,0.8711,0.88,0.8832,0.8891,0.8901,0.8921,0.8932,0.8923,0.8968,0.8972,0.8976,0.899,0.8995,0.8933,0.8933,0.8933,0.8933,0,0.8445,0.8488,0.8514,0.8572,0.8603,0.8644,0.8678,0.8706,0.8721,0.8747,0.8799,0.8838,0.8886,0.8902,0.8917,0.8963,0.896,0.8962,0.8956,0.898,0.8994,0.8999,0.8933,0.8933,0.8933,0.8933,0,0,0.8469,0.8542,0.8551,0.8577,0.8632,0.8665,0.8706,0.8754,0.8777,0.8817,0.8851,0.891,0.8912,0.8941,0.8959,0.8983,0.9013,0.8983,0.8984,0.8987,0.9065,0.9063,0.9069,0.902,0.9021,0.9022,0.9061,0,0.8508,0.8584,0.8611,0.8673,0.8712,0.8732,0.8768,0.8804,0.8829,0.8865,0.8892,0.8933,0.8933,0.895,0.8975,0.9004,0.9029,0.9002,0.9052,0.9053,0.904,0.9077,0.9075,0.911,0.9067,0.9068,0.9069,0,0.8563,0.8604,0.867,0.8719,0.8736,0.8768,0.8814,0.8848,0.889,0.8906,0.8937,0.8954,0.8996,0.8987,0.9046,0.9026,0.9048,0.9065,0.9067,0.9073,0.9062,0.9083,0.9122,0.9127,0.9078,0.9077,0.9076,0,0.8574,0.8645,0.8694,0.8715,0.8774,0.8795,0.8821,0.8861,0.8888,0.8927,0.8945,0.8988,0.9012,0.9044,0.9072,0.9063,0.9127,0.9121,0.9141,0.914,0.9154,0.9153,0.9197,0.9168,0.9168,0.9168,0.9168,0,0.8614,0.8653,0.8699,0.8729,0.8773,0.8803,0.8846,0.8872,0.8908,0.8942,0.8961,0.8993,0.9027,0.9063,0.9084,0.9129,0.9139,0.9153,0.9158,0.9151,0.9149,0.9166,0.9164,0.9169,0.9169,0.9169,0.9168,0,0.8634,0.8666,0.872,0.8771,0.8785,0.8815,0.8858,0.8887,0.8912,0.8955,0.8967,0.9006,0.9049,0.9079,0.9134,0.9148,0.9196,0.9201,0.9182,0.9185,0.9203,0.9201,0.926,0.9268,0.9233,0.9234,0.9234,0,0.8657,0.8688,0.8742,0.8767,0.8792,0.8832,0.8859,0.8889,0.8917,0.8966,0.8988,0.9032,0.907,0.9136,0.9169,0.9211,0.9217,0.9235,0.9223,0.9215,0.9217,0.9214,0.9217,0.9236,0.9236,0.9237,0.9237,0,0.8695,0.8709,0.8749,0.8793,0.8826,0.8862,0.8899,0.8917,0.8954,0.8983,0.9028,0.9056,0.9112,0.9155,0.92,0.9225,0.9236,0.924,0.9247,0.924,0.9228,0.9234,0.9186,0.9239,0.9238,0.9238,0.9238,0.9238,0.8718,0.8745,0.8788,0.883,0.8861,0.8894,0.8924,0.8953,0.899,0.9039,0.9054,0.91,0.9139,0.92,0.9225,0.926,0.9259,0.9269,0.9272,0.9274,0.9273,0.9222,0.9269,0.9269,0.9269,0.9269,0.9269,0,0.8756,0.8784,0.8823,0.8874,0.8907,0.8916,0.8956,0.8983,0.9023,0.9059,0.9095,0.9145,0.9187,0.9222,0.9265,0.9286,0.9293,0.9296,0.9295,0.93,0.9272,0.9262,0.9291,0.9291,0.9291,0.9291,0.9291,0.9291,0.878,0.8828,0.8847,0.8909,0.8936,0.8982,0.9004,0.9035,0.9063,0.9119,0.9154,0.9177,0.9212,0.9258,0.9296,0.9305,0.9319,0.9322,0.9332,0.9305,0.9303,0.93,0.9291,0.9325,0.9325,0.9358,0.9358,0.9358]}]]